KD0QEO Weather Reports


time (UTC)temp
C
wind
direction
speed
KPH
gust
KPH
rain 1hr
cm
rain 24hr
cm
rain mn
cm
humidity
%
barometer
mb
20260906200056 30 360 9.7 19.3 0.00 1.19 1.17 59 1015.5
20260906194625 30 360 6.4 14.5 0.00 1.19 1.17 67 1015.6
20260906193119 29 360 3.2 8.0 0.00 1.19 1.17 63 1015.7
20260906191610 30 360 1.6 6.4 0.00 1.19 1.17 65 1015.7
20260906190053 30 360 1.6 4.8 0.00 1.19 1.17 61 1015.9
20260906184600 30 360 3.2 8.0 0.00 1.19 1.17 58 1015.8
20260906183110 30 360 3.2 16.1 0.00 1.19 1.17 59 1015.9
20260906181631 29 360 4.8 12.9 0.00 1.19 1.17 59 1016.0
20260906180107 30 360 1.6 8.0 0.00 1.19 1.17 64 1016.0
20260906174601 28 360 3.2 8.0 0.00 1.19 1.17 62 1015.9
20260906173057 27 360 3.2 9.7 0.00 1.19 1.17 66 1015.8
20260906171607 26 360 1.6 9.7 0.00 1.19 1.17 71 1015.9
20260906170115 25 360 1.6 6.4 0.00 1.19 1.17 71 1016.0
20260906164607 25 360 1.6 6.4 0.05 1.24 1.17 69 1015.7
20260906163111 24 360 3.2 12.9 0.20 1.24 1.17 70 1015.3
20260906161602 24 360 4.8 14.5 0.20 1.24 1.17 69 1014.9
20260906160105 23 360 3.2 16.1 0.23 1.24 1.17 67 1015.2
20260906154601 24 360 4.8 22.5 0.20 1.19 1.12 62 1015.3
20260906153055 22 360 3.2 19.3 0.20 1.04 0.97 70 1015.3
20260906151606 21 360 6.4 22.5 0.43 1.04 0.97 77 1015.1
20260906150100 20 360 8.0 19.3 0.56 1.02 0.94 82 1015.6
20260906144614 20 360 11.3 27.4 0.56 0.99 0.91 86 1015.3
20260906143112 20 360 11.3 27.4 0.46 0.84 0.76 89 1016.4
20260906141600 20 360 8.0 24.1 0.23 0.61 0.53 90 1016.5
20260906140104 20 360 8.0 20.9 0.08 0.46 0.38 90 1017.2
20260906134553 20 360 4.8 16.1 0.05 0.43 0.36 90 1017.7
20260906133122 20 360 3.2 12.9 0.00 0.38 0.30 89 1017.5
20260906131600 20 360 4.8 14.5 0.00 0.38 0.30 89 1017.2
20260906130105 20 360 3.2 12.9 0.00 0.38 0.30 90 1017.3
20260906124602 20 360 3.2 12.9 0.00 0.38 0.30 89 1017.4
20260906123102 20 360 4.8 12.9 0.18 0.38 0.30 88 1017.7
20260906121559 21 360 4.8 14.5 0.25 0.38 0.30 86 1017.7
20260906120057 21 360 4.8 14.5 0.25 0.38 0.30 84 1017.6
20260906114600 22 360 6.4 19.3 0.28 0.38 0.30 82 1017.5
20260906113101 22 360 8.0 16.1 0.13 0.20 0.13 80 1017.3
20260906111601 23 360 4.8 14.5 0.05 0.13 0.05 79 1016.7
20260906110052 22 360 6.4 16.1 0.05 0.13 0.05 81 1016.3
20260906104606 22 360 3.2 14.5 0.03 0.10 0.03 85 1016.3
20260906103058 21 360 8.0 16.1 0.00 0.08 0.00 87 1016.0
20260906101554 22 360 0.0 4.8 0.00 0.08 0.00 86 1014.6
20260906100051 22 360 0.0 4.8 0.00 0.08 0.00 86 1014.6
20260906094615 22 360 1.6 4.8 0.00 0.08 0.00 86 1014.7
20260906093129 22 360 1.6 6.4 0.00 0.08 0.00 85 1014.8
20260906091603 22 360 1.6 6.4 0.00 0.08 0.00 85 1014.6
20260906090054 22 360 1.6 6.4 0.00 0.08 0.00 86 1014.4
20260906084600 21 360 0.0 4.8 0.00 0.08 0.00 88 1014.3
20260906083055 21 0 0.0 4.8 0.00 0.08 0.00 88 1014.4
20260906081554 22 0 0.0 3.2 0.00 0.08 0.00 87 1014.5
20260906080056 22 0 1.6 6.4 0.00 0.08 0.00 87 1014.7
20260906074603 22 360 0.0 4.8 0.00 0.08 0.00 87 1014.6
20260906073057 22 360 1.6 6.4 0.00 0.08 0.00 86 1014.5
20260906071555 22 0 1.6 8.0 0.00 0.08 0.00 85 1014.4
20260906064555 23 0 1.6 6.4 0.00 0.08 0.00 84 1014.5
20260906063055 23 360 1.6 6.4 0.00 0.08 0.00 82 1014.3
20260906061556 23 360 3.2 8.0 0.00 0.08 0.00 80 1014.2
20260906054607 24 360 1.6 8.0 0.00 0.08 0.00 79 1014.5
20260906053057 24 360 1.6 8.0 0.00 0.08 0.00 79 1014.9
20260906051604 24 360 0.0 6.4 0.00 0.08 0.00 80 1014.7
20260906050111 24 360 1.6 6.4 0.00 0.08 0.00 81 1014.9
20260906044604 24 360 1.6 6.4 0.00 0.08 0.08 81 1014.7
20260906043103 24 360 1.6 6.4 0.00 0.08 0.08 83 1014.6
20260906041553 25 360 1.6 6.4 0.00 0.08 0.08 82 1014.6
20260906040107 24 360 1.6 6.4 0.00 0.08 0.08 83 1014.7
20260906034605 23 0 0.0 4.8 0.00 0.08 0.08 86 1014.7
20260906033100 23 0 0.0 3.2 0.00 0.08 0.08 86 1014.5
20260906031553 24 0 0.0 4.8 0.00 0.08 0.08 84 1014.2
20260906030052 25 360 1.6 6.4 0.00 0.08 0.08 83 1014.2
20260906024603 25 0 0.0 3.2 0.00 0.08 0.08 85 1014.1
20260906023053 25 0 0.0 3.2 0.00 0.08 0.08 83 1013.8
20260906021554 26 0 0.0 3.2 0.00 0.08 0.08 81 1013.5
20260906020101 27 360 0.0 4.8 0.00 0.08 0.08 78 1013.3
20260906014634 27 360 3.2 8.0 0.00 0.08 0.08 78 1013.2
20260906013059 26 360 3.2 6.4 0.00 0.08 0.08 80 1013.0
20260906011602 27 360 1.6 6.4 0.00 0.08 0.08 78 1013.0
20260906004613 28 360 3.2 6.4 0.00 0.08 0.08 73 1012.8
20260906003112 29 360 1.6 8.0 0.00 0.08 0.08 71 1012.9
20260906001603 30 360 3.2 6.4 0.00 0.08 0.08 68 1012.7
20260905234609 31 360 3.2 8.0 0.00 0.08 0.08 65 1012.4
20260905233106 31 360 3.2 6.4 0.00 0.08 0.08 63 1012.5
20260905231554 31 360 4.8 16.1 0.00 0.08 0.08 63 1012.6
20260905230110 32 360 4.8 9.7 0.00 0.08 0.08 61 1012.4
20260905224609 32 360 4.8 14.5 0.00 0.08 0.08 60 1012.6
20260905223054 32 360 6.4 16.1 0.00 0.08 0.08 59 1012.6
20260905221616 32 360 6.4 14.5 0.03 0.08 0.08 60 1012.9
20260905220059 32 360 6.4 17.7 0.03 0.08 0.08 60 1013.0
20260905214600 32 360 6.4 17.7 0.03 0.08 0.08 59 1013.2
20260905213106 32 360 6.4 20.9 0.03 0.08 0.08 60 1013.4
20260905211600 32 360 11.3 19.3 0.00 0.05 0.05 65 1013.7
20260905210057 32 360 11.3 27.4 0.00 0.05 0.05 65 1013.9
20260905204600 32 360 9.7 24.1 0.00 0.05 0.05 64 1014.2
20260905203056 31 360 9.7 20.9 0.00 0.05 0.05 65 1014.6
20260905201627 31 360 12.9 24.1 0.00 0.05 0.05 67 1014.8